Regional Weather Roundup
Issued by NWS

Home | Current Version | Previous Version | Graphics & Text | Print | Product List | Glossary On
Versions: 1 2 3 4 5 6 7 8 9 10 11 12 13 14 15 16 17 18 19 20 21 22 23 24 25 26 27 28 29 30 31 32 33 34 35 36 37 38 39 40 41 42 43 44 45 46 47 48 49 50
000
ASUS45 KSLC 270110
RWRUT

UTAH REGIONAL WEATHER ROUNDUP
NATIONAL WEATHER SERVICE SALT LAKE CITY UT
600 PM MST WED NOV 26 2014

UTZ001>011-023>025-270200-

NORTHERN UTAH

CITY           SKY/WX    TMP DP  RH WIND       PRES   REMARKS
BRIGHAM CITY   MOCLDY    50  30  45 CALM      30.35S
HILL AFB       MOCLDY    47  29  49 SE8       30.36S
LOGAN          CLEAR     45  31  58 E9        30.33F
OGDEN          MOCLDY    49  30  48 SE5       30.35S
PROVO AIRPORT  PTCLDY    39  28  65 CALM      30.38S
SALT LAKE CITY PTCLDY    50  30  46 SE6       30.35S
VERNAL         PTCLDY    38  28  67 W5        30.33S WCI  34
WENDOVER       PTCLDY    50  28  43 CALM      30.34S
HEBER CITY     PTCLDY    34  28  80 E6        30.39R WCI  29
WEST JORDAN    CLEAR     45  34  65 SW7       30.37S

$$

UTZ012>022-026-027-270200-

SOUTHERN/CENTRAL UTAH

CITY           SKY/WX    TMP DP  RH WIND       PRES   REMARKS
BLANDING       PTCLDY    43  19  38 NW6       30.47R
BRYCE CANYON   PTCLDY    37  18  46 NW8       30.48R WCI  31
CEDAR CITY     PTCLDY    45  23  42 SE9       30.40R
DELTA          PTCLDY    51  28  41 CALM      30.39R
MILFORD        PTCLDY    45  22  40 SE8       30.38S
MOAB/CYNLANDS  CLEAR     43  15  32 NW10      30.36R
PRICE          PTCLDY    42  26  53 N8        30.38S
ST GEORGE      PTCLDY    54  16  22 CALM      30.35S
KANAB          PTCLDY    46  19  34 N8        30.42R

$$

REGIONAL REPORTS     COLORADO/ARIZONA

CITY           SKY/WX    TMP DP  RH WIND       PRES   REMARKS
CRAIG, CO      PTCLDY    37  27  67 W6        30.34R WCI  32
GRAND JUNCTION CLEAR     35  23  61 CALM      30.38R
RIFLE          CLEAR     33  25  72 E7        30.40R WCI  27
MONTROSE       CLEAR     42  25  50 CALM      30.41R
CORTEZ         CLEAR     39  21  48 SE6       30.40R WCI  35
PAGE, AZ       PTCLDY    50  20  30 CALM      30.36R
GRAND CANYON   PTCLDY    34  12  40 CALM      30.45R
KINGMAN        PTCLDY    52  16  24 E8        30.31F
FLAGSTAFF      PTCLDY    42  15  33 CALM      30.45R

$$

REGIONAL REPORTS    NEVADA/IDAHO/WYOMING

CITY           SKY/WX    TMP DP  RH WIND       PRES   REMARKS
LAS VEGAS, NV  CLEAR     64  19  17 S6        30.26S
ELY            PTCLDY    44  16  32 S5        30.42R
ELKO           PTCLDY    45  32  60 N3        30.35S
POCATELLO, ID  CLEAR     48  34  58 SW12      30.29S
BURLEY         MOCLDY    42  34  73 S3        30.27F
EVANSTON, WY   MOCLDY    39  29  67 SW20      30.38S WCI  29
ROCK SPRINGS   MOCLDY    38  27  64 W7        30.32S WCI  33

$$


USA.gov is the U.S. government's official web portal to all federal, state and local government web resources and services.